Location: Rounton
(54.4000°N, 1.3500°W)
Time: 22:40:23
(UTC+01:00)

Vanguard 1 - Pass Details

Date: 28 February 2024
Orbit: 653 x 3825 km, 34.2° (Epoch: 21 April)

Event Time Altitude Azimuth Distance (km) Brightness Sun altitude
Rises 18:04:47 0° 203° (SSW) 4,903 14.1 -4.5°
Reaches altitude 10° 18:08:30 10° 189° (S) 4,358 13.6 -5.1°
Maximum altitude 18:17:36 23° 142° (SE) 4,316 13.0 -6.4°
Drops below altitude 10° 18:30:29 10° 100° (E) 6,366 13.5 -8.3°
Enters shadow 18:31:46 - 98° (E) 6,612 13.6 -8.5°
Sets 18:37:40 0° 89° (E) 7,751 - -9.3°
